Terminal Aerodrome Forecast
Issued by NWS Pueblo, CO

Home | Current Version | Previous Version | Text Only | Print | Product List | Glossary On
Versions: 1 2 3 4 5 6 7 8 9 10 11 12 13 14 15 16 17 18 19 20 21 22 23 24 25 26 27 28 29 30 31 32
000
FTUS45 KPUB 232340
TAFPUB
TAF
KPUB 232340Z 2400/2424 12012G22KT P6SM FEW100 SCT120 SCT200
     FM240300 VRB06KT P6SM FEW120 SCT200
     FM241900 25010G20KT P6SM SCT100 SCT200=

USA.gov is the U.S. government's official web portal to all federal, state and local government web resources and services.